This is the latest recevied weather packets stored in our database for station/object KC5EZZ-2. If no packets are shown the sender has not sent any weather packets the latest 10 day(s).
| Time | Temp. | Humidity | Pressure | Rain* | Wind** | Luminosity | Snow |
|---|---|---|---|---|---|---|---|
| 1777789659 | 13.33° C | - | - | 0 mm | 1.34 m/s, 163° | - | - |
| 1777789356 | 13.33° C | - | - | 0 mm | 0.89 m/s, 158° | - | - |
| 1777789057 | 13.33° C | - | - | 0 mm | 0.89 m/s, 156° | - | - |
| 1777788757 | 13.33° C | - | - | 0 mm | 0.89 m/s, 134° | - | - |
| 1777788455 | 13.89° C | - | - | 0 mm | 1.34 m/s, 114° | - | - |
| 1777788155 | 13.89° C | - | - | 0 mm | 0.45 m/s, 146° | - | - |
| 1777787856 | 13.89° C | - | - | 0 mm | 1.34 m/s, 184° | - | - |
| 1777787553 | 13.89° C | - | - | 0 mm | 0.89 m/s, 169° | - | - |
| 1777787254 | 13.89° C | - | - | 0 mm | 0.45 m/s, 150° | - | - |
| 1777786955 | 13.89° C | - | - | 0 mm | 0.89 m/s, 149° | - | - |
| 1777786652 | 14.44° C | - | - | 0 mm | 0.89 m/s, 146° | - | - |
| 1777786353 | 14.44° C | - | - | 0 mm | 1.34 m/s, 149° | - | - |
| 1777786053 | 13.89° C | - | - | 0 mm | 1.34 m/s, 159° | - | - |
| 1777785751 | 14.44° C | - | - | 0 mm | 1.79 m/s, 191° | - | - |
| 1777785451 | 14.44° C | - | - | 0 mm | 1.79 m/s, 177° | - | - |
| 1777785152 | 13.89° C | - | - | 0 mm | 2.24 m/s, 180° | - | - |
| 1777784850 | 13.89° C | - | - | 0 mm | 1.34 m/s, 183° | - | - |
| 1777784550 | 13.89° C | - | - | 0 mm | 0.89 m/s, 183° | - | - |
| 1777784250 | 13.89° C | - | - | 0 mm | 0 m/s | - | - |
| 1777783948 | 13.89° C | - | - | 0 mm | 0 m/s | - | - |
| 1777783649 | 13.33° C | - | - | 0 mm | 0 m/s | - | - |
| 1777783349 | 13.33° C | - | - | 0 mm | 0.45 m/s, 156° | - | - |
| 1777783160 | 13.33° C | - | - | 0 mm | 0 m/s | - | - |
| 1777783047 | 13.33° C | - | - | 0 mm | 0 m/s | - | - |
| 1777782747 | 13.33° C | - | - | 0 mm | 0 m/s | - | - |
* Rain latest hour (hover to see other rain measurements)
** Current wind speed in m/s (hover to see current wind gust speed)